This is the latest recevied weather packets stored in our database for station/object N4TLC. If no packets are shown the sender has not sent any weather packets the latest 10 day(s).
| Time | Temp. | Humidity | Pressure | Rain* | Wind** | Luminosity | Snow |
|---|---|---|---|---|---|---|---|
| 1777572542 | 21.67° C | 47% | 1011.8 hPa | 0 mm | - | 1058 W/m² | - |
| 1777572237 | 21.11° C | 50% | 1011.6 hPa | 0 mm | - | 1172 W/m² | - |
| 1777571933 | 21.11° C | 47% | 1011.7 hPa | 0 mm | - | 472 W/m² | - |
| 1777571628 | 21.11° C | 49% | 1011.6 hPa | 0 mm | - | 423 W/m² | - |
| 1777571325 | 20.56° C | 48% | 1011.7 hPa | 0 mm | - | 1162 W/m² | - |
| 1777571021 | 20° C | 48% | 1011.8 hPa | 0 mm | - | 1076 W/m² | - |
| 1777570717 | 20° C | 48% | 1011.6 hPa | 0 mm | - | 1060 W/m² | - |
| 1777570414 | 20° C | 50% | 1011.9 hPa | 0 mm | - | 1171 W/m² | - |
| 1777570110 | 20.56° C | 50% | 1011.9 hPa | 0 mm | - | 1227 W/m² | - |
| 1777569806 | 20.56° C | 48% | 1011.8 hPa | 0 mm | - | 944 W/m² | - |
| 1777569502 | 20.56° C | 49% | 1011.8 hPa | 0 mm | - | 316 W/m² | - |
| 1777569199 | 20.56° C | 49% | 1012 hPa | 0 mm | - | 276 W/m² | - |
| 1777568895 | 20.56° C | 49% | 1011.8 hPa | 0 mm | - | 201 W/m² | - |
| 1777568592 | 20.56° C | 50% | 1012.1 hPa | 0 mm | - | 181 W/m² | - |
| 1777568289 | 20° C | 50% | 1012.1 hPa | 0 mm | - | 225 W/m² | - |
| 1777567985 | 20° C | 52% | 1012.1 hPa | 0 mm | - | 150 W/m² | - |
| 1777567682 | 19.44° C | 51% | 1012.2 hPa | 0 mm | - | 120 W/m² | - |
| 1777567379 | 20° C | 52% | 1012.4 hPa | 0 mm | - | 119 W/m² | - |
| 1777567077 | 19.44° C | 54% | 1012.4 hPa | 0 mm | - | 1011 W/m² | - |
| 1777566775 | 19.44° C | 51% | 1012.6 hPa | 0 mm | - | 1102 W/m² | - |
| 1777566472 | 18.89° C | 53% | 1012.5 hPa | 0 mm | - | 1067 W/m² | - |
| 1777566170 | 19.44° C | 51% | 1012.7 hPa | 0 mm | - | 1004 W/m² | - |
| 1777565865 | 19.44° C | 52% | 1012.6 hPa | 0 mm | - | 981 W/m² | - |
| 1777565561 | 19.44° C | 51% | 1012.7 hPa | 0 mm | - | 978 W/m² | - |
| 1777565258 | 19.44° C | 52% | 1012.6 hPa | 0 mm | - | 962 W/m² | - |
* Rain latest hour (hover to see other rain measurements)
** Current wind speed in m/s (hover to see current wind gust speed)